CW7218 Weather Reports


time (UTC)temp
F
wind
direction
speed
knots
gust
knots
rain 1hr
in
rain 24hr
in
rain mn
in
humidity
%
barometer
mb
20260504021016 54 90 2.6 4.3 0.00 0.02 0.00 87 1012.6
20260504020036 54 113 0.9 4.3 0.00 0.02 0.00 86 1012.7
20260504015016 54 0.0 1.7 0.00 0.02 0.00 85 1012.8
20260504014016 54 113 0.9 1.7 0.00 0.02 0.00 86 1013.1
20260504013016 54 45 0.9 1.7 0.00 0.02 0.00 86 1013.1
20260504012016 54 0.0 1.7 0.00 0.02 0.00 86 1013.4
20260504011036 54 248 0.9 1.7 0.00 0.02 0.00 86 1013.5
20260504010036 54 248 1.7 2.6 0.00 0.02 0.00 86 1013.6
20260504005036 54 248 1.7 4.3 0.00 0.02 0.00 86 1013.6
20260504004016 54 293 1.7 2.6 0.00 0.02 0.00 86 1013.6
20260504003018 54 203 1.7 3.5 0.00 0.02 0.00 86 1013.4
20260504002017 54 225 1.7 3.5 0.00 0.02 0.00 85 1013.3
20260504001018 54 270 2.6 4.3 0.00 0.02 0.00 85 1013.4
20260504000016 54 248 2.6 3.5 0.00 0.02 0.02 85 1013.2
20260503235016 54 0.0 1.7 0.00 0.02 0.02 84 1013.2
20260503234016 54 180 1.7 4.3 0.00 0.02 0.02 85 1013.2
20260503233016 54 248 0.9 5.2 0.00 0.03 0.02 83 1013.3
20260503232016 54 270 1.7 3.5 0.00 0.03 0.02 83 1013.4
20260503231036 54 293 2.6 5.2 0.00 0.03 0.02 84 1013.4
20260503230018 54 0 2.6 5.2 0.00 0.03 0.02 83 1013.3
20260503225018 54 68 4.3 7.8 0.00 0.03 0.02 83 1013.3
20260503224038 54 68 5.2 9.6 0.00 0.03 0.02 83 1013.4
20260503223017 54 45 6.1 11.3 0.00 0.03 0.02 84 1013.5
20260503222037 54 45 5.2 8.7 0.00 0.03 0.02 84 1013.4
20260503221017 54 90 1.7 5.2 0.00 0.03 0.02 84 1013.6
20260503220017 54 270 1.7 3.5 0.00 0.03 0.02 85 1013.9
20260503215037 54 270 2.6 4.3 0.00 0.03 0.02 84 1014.0
20260503214018 54 248 2.6 6.1 0.00 0.03 0.02 84 1014.1
20260503213017 54 180 2.6 4.3 0.00 0.03 0.02 84 1014.1
20260503212018 54 180 1.7 4.3 0.00 0.03 0.02 85 1014.1
20260503211017 54 180 1.7 3.5 0.00 0.03 0.02 85 1014.1
20260503210018 54 180 2.6 4.3 0.00 0.03 0.02 85 1013.9
20260503205017 54 158 2.6 5.2 0.00 0.03 0.02 85 1013.8
20260503204017 55 180 2.6 4.3 0.00 0.03 0.02 85 1013.8
20260503203017 55 180 3.5 6.1 0.00 0.03 0.02 85 1013.8
20260503202017 55 180 3.5 6.1 0.00 0.03 0.02 86 1013.8
20260503201038 55 180 4.3 7.8 0.00 0.03 0.02 85 1013.8
20260503200017 55 180 3.5 6.1 0.00 0.03 0.02 83 1013.5
20260503195037 55 203 3.5 6.1 0.00 0.03 0.02 81 1013.3
20260503194017 55 203 3.5 6.1 0.00 0.03 0.02 81 1013.2
20260503193037 55 180 2.6 5.2 0.00 0.03 0.02 79 1013.1
20260503192117 56 203 3.5 6.1 0.00 0.03 0.02 79 1013.0
20260503191017 56 180 3.5 6.1 0.00 0.03 0.02 78 1013.0
20260503190017 56 203 4.3 7.0 0.00 0.03 0.02 76 1012.8
20260503185037 56 203 3.5 5.2 0.00 0.03 0.02 75 1012.7
20260503184017 56 180 3.5 6.1 0.00 0.03 0.02 73 1012.7
20260503183017 57 248 4.3 10.4 0.00 0.03 0.02 70 1012.6
20260503182017 57 203 4.3 8.7 0.00 0.03 0.02 68 1012.5
20260503181017 57 203 7.0 12.2 0.00 0.03 0.02 68 1012.4
20260503180037 58 180 4.3 11.3 0.00 0.03 0.02 68 1012.4
20260503175017 58 203 4.3 6.1 0.00 0.03 0.02 70 1012.4
20260503174017 59 203 3.5 6.1 0.00 0.03 0.02 70 1012.5
20260503173017 59 203 3.5 6.1 0.00 0.03 0.02 70 1012.6
20260503172017 59 180 2.6 6.1 0.00 0.03 0.02 70 1012.4
20260503171017 59 180 3.5 6.1 0.00 0.03 0.02 69 1012.4
20260503131036 64 180 4.3 9.6 0.00 0.03 0.02 65 1014.2
20260503081017 58 158 1.7 3.5 0.00 0.09 0.02 68 1016.0
20260503072017 56 158 0.9 2.6 0.00 0.21 0.02 80 1015.9
20260503071017 55 0.0 1.7 0.00 0.23 0.02 79 1015.8
20260503055017 52 23 4.3 8.7 0.00 0.25 0.02 86 1015.8
20260503054017 51 45 3.5 5.2 0.00 0.25 0.02 87 1015.8
20260503053017 51 45 4.3 7.0 0.00 0.25 0.02 88 1015.9
20260503052017 51 45 3.5 7.0 0.01 0.25 0.02 88 1015.8
20260503051017 51 68 3.5 6.1 0.01 0.25 0.02 88 1015.8
20260503050017 51 68 3.5 7.0 0.01 0.25 0.02 87 1015.7
20260503045016 51 45 4.3 7.8 0.01 0.25 0.02 87 1015.4
20260503044017 51 23 4.3 7.0 0.01 0.25 0.02 87 1015.4
20260503043017 51 45 3.5 6.1 0.02 0.25 0.02 86 1015.5
20260503042037 52 23 3.5 7.0 0.01 0.24 0.01 85 1015.9
20260503041016 52 23 2.6 6.1 0.01 0.24 0.01 86 1015.9
20260503040019 52 90 1.7 5.2 0.01 0.24 0.01 86 1016.1
20260503035017 52 45 2.6 4.3 0.01 0.24 0.01 86 1016.0
20260503034036 52 45 3.5 6.1 0.01 0.24 0.01 87 1016.1
20260503033016 52 45 3.5 7.8 0.00 0.24 0.00 87 1016.3
20260503032017 52 45 3.5 5.2 0.00 0.24 0.00 86 1016.6
20260503031016 52 45 1.7 4.3 0.00 0.24 0.00 85 1016.6
20260503030016 53 248 1.7 3.5 0.00 0.24 0.00 85 1016.5
20260503025016 53 225 0.9 2.6 0.00 0.24 0.00 86 1016.7
20260503024016 53 90 0.9 2.6 0.00 0.24 0.00 86 1016.7
20260503023016 52 45 2.6 5.2 0.00 0.24 0.00 84 1016.6
20260503022016 52 23 3.5 5.2 0.00 0.24 0.00 85 1016.6